Portada
METAR-TAF:

METAR-TAF

Aeropuertos :

Aeropuerto Internacional Jacinto Lara

Barquisimeto, Venezuela

latitud: 10-04N, longitud: 069-19W, altitud: 613 m

Observación

El informe se hizo hace 3 horas y 29 minutos, a las 00:00 UTC
Viento 7 kt del este-sureste
Temperatura 24°C
Humedad 78%
Presión 1016 hPa
Visibilidad 10 km o más
Escasas nubes a una altura de 1600 ft

METAR: SVBM 250000Z 11007KT 9999 FEW016 24/20 Q1016

Hora: 23:29 (03:29 UTC)


TAF: falta

Observaciones y pronósticos meteorológicos de más de 4000 aeropuertos (mensajes METAR y TAF).

Los puntos amarillos y rojos representan las estaciones disponibles.

Ponga el ratón en el punto deseado para ver el nombre de la estación.

Haga clic para ver las observaciones y los pronósticos meteorológicos.

Para cambiar el mapa : haga clic en los botones verdes con una cruz de color negro para hacer un zoom, en el botón verde con un guión para alejar o en las flechas verdes para mapas adyacentes.


METAR-TAF: